Location: Bosdarros
(43.2167°N, 0.3667°W)
Time: 16:13:53
(UTC+00:00)

ATLAS 3B R/B - Pass Details

Date: 22 April 2021
Orbit: 1006 x 1189 km, 63.8° (Epoch: 21 April)

Event Time Altitude Azimuth Distance (km) Brightness Sun altitude
Rises 19:21:14 0° 324° (NW) 3,887 6.8 -5.7°
Reaches altitude 10° 19:23:52 10° 326° (NW) 2,954 6.0 -6.1°
Maximum altitude 19:30:56 79° 53° (NE) 1,154 2.9 -7.3°
Drops below altitude 10° 19:38:17 10° 141° (SE) 3,065 4.5 -8.5°
Enters shadow 19:39:09 - 141° (SE) 3,374 4.8 -8.7°
